Weather History for K4M9 - August, 2014

Change the Weather History Date:

Wednesday, August 27, 2014

  Actual Average (KARG) Record (KARG)
Temperature  
Mean Temperature 82 °F -  
Max Temperature 93 °F 86 °F 93 °F (2003)
Min Temperature 71 °F 67 °F 57 °F (2010)
Cooling Degree Days 17    
Growing Degree Days 32 (Base 50)    
Moisture  
Dew Point 74 °F    
Average Humidity 78    
Maximum Humidity 100    
Minimum Humidity 49    
Precipitation  
Precipitation 0.14 in - - ()
Sea Level Pressure  
Sea Level Pressure 30.06 in    
Wind  
Wind Speed 3 mph (ESE)    
Max Wind Speed 9 mph    
Max Gust Speed -    
Visibility 8 miles    
Events Rain    
Averages and records for this station are not official NWS values.
T = Trace of Precipitation, MM = Missing Value Source: NWS Daily Summary

Daily Weather History Graph

Daily Weather History Graph

Search for Another Location

Airport or City:

Trip Planner

Search our weather history database for the weather conditions in past years. The results will help you decide how hot, cold, wet, or windy it might be!

Date:

Astronomy

Aug. 27, 2014 Rise Set
Actual Time 6:30 AM CDT 7:37 PM CDT
Civil Twilight 6:03 AM CDT 8:04 PM CDT
Nautical Twilight 5:31 AM CDT 8:35 PM CDT
Astronomical Twilight 4:58 AM CDT 9:08 PM CDT
Moon 8:21 AM CDT (8/27) 8:35 PM CDT (8/27)
Length of Visible Light 14h 00m
Length of Day
13h 07m
Waxing Crescent, 4% of the Moon is Illuminated
Aug 27
Waxing Crescent
Sep 2
First Quarter
Sep 8
Full
Sep 15
Last Quarter
Sep 24
New

Hourly Weather History & Observations

Time (CDT) Temp. Heat Index Dew Point Humidity Pressure Visibility Wind Dir Wind Speed Gust Speed Precip Events Conditions
12:15 AM 77.0 °F - 73.4 °F 89% 30.07 in 8.0 mi NNW 5.8 mph - N/A   Unknown
12:35 AM 77.0 °F - 75.2 °F 94% 30.07 in 7.0 mi North 4.6 mph - N/A   Unknown
12:55 AM 75.2 °F - 73.4 °F 94% 30.08 in 8.0 mi Calm Calm - N/A   Unknown
1:15 AM 75.2 °F - 73.4 °F 94% 30.07 in 7.0 mi North 3.5 mph - N/A   Unknown
1:55 AM 75.2 °F - 73.4 °F 94% 30.07 in 6.0 mi ENE 4.6 mph - N/A   Mist
2:15 AM 75.2 °F - 75.2 °F 100% 30.07 in 5.0 mi ESE 3.5 mph - N/A   Mist
2:35 AM 75.2 °F - 75.2 °F 100% 30.07 in 6.0 mi East 3.5 mph - N/A   Mist
2:55 AM 73.4 °F - 73.4 °F 100% 30.07 in 7.0 mi Calm Calm - N/A   Unknown
3:15 AM 73.4 °F - 73.4 °F 100% 30.07 in 6.0 mi Calm Calm - N/A   Mist
3:35 AM 73.4 °F - 73.4 °F 100% 30.07 in 6.0 mi Calm Calm - N/A   Mist
3:55 AM 73.4 °F - 73.4 °F 100% 30.07 in 6.0 mi Calm Calm - N/A   Mist
4:15 AM 73.4 °F - 73.4 °F 100% 30.07 in 5.0 mi NW 3.5 mph - N/A   Mist
4:35 AM 73.4 °F - 73.4 °F 100% 30.07 in 5.0 mi Calm Calm - N/A   Mist
4:55 AM 73.4 °F - 73.4 °F 100% 30.07 in 5.0 mi Calm Calm - N/A   Mist
5:15 AM 73.4 °F - 73.4 °F 100% 30.07 in 5.0 mi Calm Calm - N/A   Mist
5:35 AM 73.4 °F - 73.4 °F 100% 30.07 in 5.0 mi Calm Calm - N/A   Mist
5:55 AM 71.6 °F - 71.6 °F 100% 30.07 in 3.0 mi Calm Calm - N/A   Mist
6:15 AM 73.4 °F - 73.4 °F 100% 30.08 in 4.0 mi North 3.5 mph - N/A   Mist
6:35 AM 73.4 °F - 73.4 °F 100% 30.08 in 3.0 mi NNE 3.5 mph - N/A   Mist
6:55 AM 73.4 °F - 73.4 °F 100% 30.08 in 2.5 mi East 3.5 mph - N/A   Mist
7:15 AM 73.4 °F - 73.4 °F 100% 30.09 in 2.5 mi East 3.5 mph - N/A   Mist
7:35 AM 73.4 °F - 73.4 °F 100% 30.09 in 3.0 mi Calm Calm - N/A   Mist
7:55 AM 75.2 °F - 75.2 °F 100% 30.09 in 3.0 mi Calm Calm - N/A   Mist
8:15 AM 77.0 °F - 75.2 °F 94% 30.09 in 5.0 mi Calm Calm - N/A   Mist
8:35 AM 78.8 °F - 73.4 °F 83% 30.10 in 7.0 mi Calm Calm - N/A   Unknown
8:55 AM 80.6 °F 85.4 °F 73.4 °F 79% 30.10 in 8.0 mi Calm Calm - N/A   Unknown
9:15 AM 82.4 °F 88.2 °F 73.4 °F 74% 30.10 in 9.0 mi Calm Calm - N/A   Unknown
9:35 AM 82.4 °F 88.2 °F 73.4 °F 74% 30.10 in 9.0 mi East 3.5 mph - N/A   Unknown
9:55 AM 84.2 °F 90.9 °F 73.4 °F 70% 30.11 in 9.0 mi Calm Calm - N/A   Unknown
10:15 AM 84.2 °F 90.9 °F 73.4 °F 70% 30.11 in 9.0 mi ESE 4.6 mph - N/A Rain Light Rain
10:35 AM 86.0 °F 93.4 °F 73.4 °F 66% 30.11 in 9.0 mi East 4.6 mph - N/A Rain Light Rain
10:55 AM 86.0 °F 95.1 °F 75.2 °F 70% 30.11 in 9.0 mi ESE 4.6 mph - 0.01 in Rain Light Rain
11:15 AM 86.0 °F 93.4 °F 73.4 °F 66% 30.11 in 8.0 mi Calm Calm - N/A Rain Light Rain
11:35 AM 89.6 °F 98.2 °F 73.4 °F 59% 30.10 in 8.0 mi SSE 5.8 mph - N/A Rain Light Rain
11:55 AM 89.6 °F 98.2 °F 73.4 °F 59% 30.09 in 9.0 mi South 4.6 mph - 0.01 in Rain Light Rain
12:15 PM 89.6 °F 96.2 °F 71.6 °F 55% 30.09 in 10.0 mi East 6.9 mph - N/A Rain Light Rain
12:35 PM 89.6 °F 98.2 °F 73.4 °F 59% 30.09 in 9.0 mi ESE 5.8 mph - 0.01 in Rain Light Rain
12:55 PM 89.6 °F 98.2 °F 73.4 °F 59% 30.08 in 9.0 mi Calm Calm - 0.01 in Rain Light Rain
1:15 PM 91.4 °F 100.1 °F 73.4 °F 55% 30.08 in 8.0 mi SE 4.6 mph - N/A Rain Light Rain
1:35 PM 91.4 °F 100.1 °F 73.4 °F 55% 30.07 in 9.0 mi SSE 5.8 mph - 0.01 in Rain Light Rain
1:55 PM 91.4 °F 98.4 °F 71.6 °F 52% 30.07 in 9.0 mi SE 6.9 mph - 0.02 in Rain Light Rain
2:15 PM 91.4 °F 98.4 °F 71.6 °F 52% 30.06 in 10.0 mi SE 6.9 mph - N/A Rain Light Rain
2:35 PM 91.4 °F 98.4 °F 71.6 °F 52% 30.06 in 9.0 mi ESE 6.9 mph - 0.01 in Rain Light Rain
2:55 PM 91.4 °F 100.1 °F 73.4 °F 55% 30.05 in 9.0 mi ESE 8.1 mph - 0.02 in Rain Light Rain
3:15 PM 91.4 °F 100.1 °F 73.4 °F 55% 30.05 in 9.0 mi SE 5.8 mph - N/A Rain Light Rain
3:35 PM 91.4 °F 100.1 °F 73.4 °F 55% 30.04 in 9.0 mi ESE 8.1 mph - 0.01 in Rain Light Rain
3:55 PM 93.2 °F 100.5 °F 71.6 °F 49% 30.04 in 9.0 mi ESE 9.2 mph - 0.02 in Rain Light Rain
4:15 PM 93.2 °F 102.4 °F 73.4 °F 52% 30.03 in 10.0 mi ESE 5.8 mph - N/A Rain Light Rain
4:35 PM 91.4 °F 100.1 °F 73.4 °F 55% 30.02 in 9.0 mi SSE 6.9 mph - 0.01 in Rain Light Rain
4:55 PM 93.2 °F 102.4 °F 73.4 °F 52% 30.02 in 10.0 mi SE 6.9 mph - 0.02 in Rain Light Rain
5:15 PM 91.4 °F 100.1 °F 73.4 °F 55% 30.01 in 10.0 mi SE 8.1 mph - N/A Rain Light Rain
5:35 PM 91.4 °F 98.4 °F 71.6 °F 52% 30.02 in 9.0 mi SE 6.9 mph - 0.01 in Rain Light Rain
5:55 PM 89.6 °F 98.2 °F 73.4 °F 59% 30.01 in 10.0 mi SE 5.8 mph - 0.02 in Rain Light Rain
6:15 PM 89.6 °F 98.2 °F 73.4 °F 59% 30.01 in 9.0 mi SSE 6.9 mph - N/A Rain Light Rain
6:35 PM 87.8 °F 97.6 °F 75.2 °F 66% 30.01 in 8.0 mi SSE 4.6 mph - N/A Rain Light Rain
6:55 PM 86.0 °F 95.1 °F 75.2 °F 70% 30.01 in 8.0 mi SE 3.5 mph - 0.01 in Rain Light Rain
7:15 PM 84.2 °F 92.3 °F 75.2 °F 74% 30.01 in 8.0 mi SE 5.8 mph - N/A Rain Light Rain
7:35 PM 82.4 °F 89.5 °F 75.2 °F 79% 30.02 in 6.0 mi SE 5.8 mph - N/A Rain Light Rain
7:55 PM 82.4 °F 89.5 °F 75.2 °F 79% 30.02 in 8.0 mi Calm Calm - N/A   Unknown
8:15 PM 82.4 °F 88.2 °F 73.4 °F 74% 30.03 in 10.0 mi SE 3.5 mph - N/A Rain Light Rain
8:35 PM 82.4 °F 89.5 °F 75.2 °F 79% 30.03 in 9.0 mi Calm Calm - N/A   Unknown
8:55 PM 82.4 °F 89.5 °F 75.2 °F 79% 30.04 in 7.0 mi SE 4.6 mph - N/A   Unknown
9:15 PM 80.6 °F 86.2 °F 75.2 °F 84% 30.04 in 7.0 mi SE 4.6 mph - N/A   Unknown
9:35 PM 80.6 °F 86.2 °F 75.2 °F 84% 30.04 in 7.0 mi SSE 4.6 mph - N/A   Unknown
9:55 PM 80.6 °F 86.2 °F 75.2 °F 84% 30.04 in 8.0 mi SSE 3.5 mph - N/A   Unknown
10:15 PM 80.6 °F 85.4 °F 73.4 °F 79% 30.04 in 9.0 mi South 3.5 mph - N/A   Unknown
10:35 PM 80.6 °F 85.4 °F 73.4 °F 79% 30.05 in 10.0 mi South 4.6 mph - N/A   Unknown
10:55 PM 80.6 °F 85.4 °F 73.4 °F 79% 30.04 in 10.0 mi SSE 3.5 mph - N/A   Unknown
11:15 PM 77.0 °F - 73.4 °F 89% 30.04 in 9.0 mi Calm Calm - N/A   Unknown
11:35 PM 78.8 °F - 73.4 °F 83% 30.04 in 9.0 mi Calm Calm - N/A   Unknown
11:55 PM 77.0 °F - 73.4 °F 89% 30.04 in 10.0 mi Calm Calm - N/A   Unknown